CZ-6A DEB, 61489

Orbit data source: Space-Track

CZ-6A DEB, 61489 is space debris in LEO originally from a launch on Tue, 06 Aug 2024 UTC launched from the Taiyaun Space Center, China (TSC). Debris objects in space refer to the collection of defunct objects orbiting the Earth. Examples of debris include non-operational satellites, rocket bodies, and fragments generated from explosions, collisions, or faulty payload assembly.

Loading next visibility...
Identifier
61489, 2024-140AAX
Orbit
LEO
Country
Flag of CNCN / PRC
Related business
Manufacturer
SAST
Mission
Spacecraft
Bus & Motor
Unknown
Mass
Unknown
Launch date (UTC)
2024-08-06 (2 years ago)
Launch vehicle
Unknown
Launch site
Taiyaun Space Center, China (TSC)
Object type
Payload
Rocket body
Debris
Shape & HBR
Unknown shape, 1.1 m
Radar Cross Section
Medium (>0.1 m² and <1 m²)

Expand to show TLE details & history
Last TLE update: 13 hours ago

TLE from 13 hours ago
0 CZ-6A DEB
1 61489U 24140AAX 26171.31072888  .00022884  00000-0  29357-2 0  9995
2 61489  89.2162 287.6022 0074461 140.9951 219.6676 14.79177415 93450
Epoch: 2026-06-20T07:27Z
TLE epoch observation values (Epoch: 2026-06-20T07:27:26.975Z)
Latitude
-0.00005°
Longitude
-92.78738°
Altitude
675.406 km
Speed
7.497 km/s
True Right ascension
19h 10m 24s
True Declination
0° 00' 00"
Sunlit
Object was in full shadow at epoch
Visualization orbit readout
Latitude
Unknown
Longitude
Unknown
Altitude
Unknown
Speed
Unknown
Apparent Right ascension
Unknown
Apparent Declination
Unknown
Sunlit
N/A
Visualization observer readout
Local Sidereal Time
07:19:31
Azimuth
Unknown
Elevation
Unknown
Doppler factor
Unknown
Orbital elements
Apogee altitude
680.962 km
Perigee altitude
576.613 km
Semi-major axis
7,006.924 km
Eccentricity
0.00745
Inclination
89.2162°
RAAN
287.6022°
Arg. of periapsis
140.9951°
True anomaly
219.12682°
Mean anomaly
219.6676°
Eccentric anomaly
219.39682°
Mean motion
3.70043 °/min
Orbital period
97.29 mins
BSTAR
0.0029357
Loading maneuver chart data...
Computing Atmospheric mass density...
Loading historical data...
Loading historical data...
Loading historical data...
Loading historical data...
Loading historical data...
Loading historical data...
Loading historical data...

Documentation

Showing up to 5 results
|